Regional Weather Roundup
Issued by NWS

Home | Current Version | Previous Version | Text Only | Print | Product List | Glossary On
Versions: 1 2 3 4 5 6 7 8 9 10 11 12 13 14 15 16 17 18 19 20 21 22 23 24 25 26 27 28 29 30 31 32 33 34 35 36 37 38 39 40 41 42 43 44 45 46 47 48 49 50
000
ASCA42 TJSJ 030010
RWRPR
PUERTO RICO/U.S. VIRGIN ISLANDS HOURLY WEATHER ROUNDUP
NATIONAL WEATHER SERVICE SAN JUAN PR
800 PM AST MON MAR 02 2015

PRZ001-004-030100-
PUERTO RICO

CITY           SKY/WX    TMP DP  RH WIND       PRES   REMARKS
SAN JUAN LMM   PTCLDY    77  70  78 E10       30.05R
AGUADILLA      MOCLDY    75  66  73 E13G18    30.07R
CEIBA          MOCLDY   N/A N/A N/A NE9       30.06S
$$

PRZ006-007-030100-
U.S. VIRGIN ISLANDS

CITY           SKY/WX    TMP DP  RH WIND       PRES   REMARKS
CHARLOTTE AMA  CLOUDY    75  68  78 E8        30.04
CHRISTIANSTED  CLEAR     75  66  73 NE7       30.04
$$

HOURLY WEATHER ROUNDUP FOR THE NEWS MEDIA

CITY           SKY/WX    TMP DP  RH WIND       PRES   REMARKS
ORLANDO        CLEAR     74  66  76 E8        30.21R
NEW YORK       PTCLDY    36  10  34 NW16      30.25R WCI  26
NEWARK         PTCLDY    34  11  38 NW13G22   30.27R WCI  25
CHICAGO        CLOUDY    28  19  69 SE9       30.36F WCI  19
HARTFORD       CLEAR     29  11  47 W9G17     30.12R WCI  20
BOSTON         LGT SNOW  30  18  60 W20G35    30.12R WCI  17
DALLAS         CLOUDY    41  39  93 VRB3      30.21F FOG
PHILADELPHIA   PTCLDY    36  13  38 W13       30.33R WCI  27
LOS ANGELES    MOSUNNY   58  43  57 W10       29.91R
WASHINGTON DC  PTCLDY    34  17  50 NE7       30.37R WCI  28



USA.gov is the U.S. government's official web portal to all federal, state and local government web resources and services.